Telluride, CO

8:26 PM MST on December 11, 2019 (GMT -0700)
Telluride Regional

Weather History for KTEX - October, 2019

Change the Weather History Date:

Monday, October 7, 2019

  Actual Average Record
Temperature  
Mean Temperature 50 °F -  
Max Temperature 64 °F 54 °F 64 °F (1996)
Min Temperature 35 °F 34 °F 24 °F (2007)
Degree Days  
Heating Degree Days 16    
Moisture  
Dew Point 9 °F    
Average Humidity 22    
Maximum Humidity 35    
Minimum Humidity 8    
Precipitation  
Precipitation 0.00 in - - ()
Sea Level Pressure  
Sea Level Pressure 30.43 in    
Wind  
Wind Speed 6 mph (South)    
Max Wind Speed 15 mph    
Max Gust Speed 22 mph    
Visibility 10 miles    
Events      
Averages and records for this station are not official NWS values.
T = Trace of Precipitation, MM = Missing Value Source: NWS Daily Summary

Daily Weather History Graph

Daily Weather History Graph

Search for Another Location

Airport or City:

Astronomy

Oct. 07, 2019 Rise Set
Actual Time 7:12 AM MDT 6:45 PM MDT
Civil Twilight 6:46 AM MDT 7:12 PM MDT
Nautical Twilight 6:15 AM MDT 7:42 PM MDT
Astronomical Twilight 5:45 AM MDT 8:12 PM MDT
Moon 4:02 PM MDT (10/7) 1:15 AM MDT (10/7)
Length of Visible Light 12h 25m
Length of Day
11h 33m
Waxing Gibbous, 69% of the Moon is Illuminated
Oct 7
Waxing Gibbous
Oct 13
Full
Oct 21
Last Quarter
Oct 27
New
Nov 4
First Quarter

Hourly Weather History & Observations

Time (MDT) Temp. Windchill Dew Point Humidity Pressure Visibility Wind Dir Wind Speed Gust Speed Precip Events Conditions
12:15 AM 35.6 °F 29.9 °F 5.0 °F 28% 30.50 in - SE 6.9 mph - N/A   Clear
12:35 AM 35.6 °F 30.7 °F 6.8 °F 30% 30.50 in - SE 5.8 mph - N/A   Clear
12:55 AM 35.6 °F - 5.0 °F 28% 30.50 in - Calm Calm - N/A   Clear
1:15 AM 35.6 °F 30.7 °F 5.0 °F 28% 30.50 in - SE 5.8 mph - N/A   Clear
1:35 AM 35.6 °F 31.7 °F 5.0 °F 28% 30.50 in - SE 4.6 mph - N/A   Clear
1:55 AM 35.6 °F 29.9 °F 6.8 °F 30% 30.50 in - SE 6.9 mph - N/A   Clear
2:15 AM 35.6 °F 30.7 °F 6.8 °F 30% 30.50 in - SE 5.8 mph - N/A   Clear
2:35 AM 37.4 °F 32.8 °F 8.6 °F 30% 30.50 in - SSE 5.8 mph - N/A   Clear
2:55 AM 35.6 °F 29.9 °F 8.6 °F 33% 30.50 in - SE 6.9 mph - N/A   Clear
3:15 AM 37.4 °F 32.1 °F 8.6 °F 30% 30.49 in - SE 6.9 mph - N/A   Clear
3:35 AM 37.4 °F 32.8 °F 8.6 °F 30% 30.48 in - SE 5.8 mph - N/A   Clear
3:55 AM 37.4 °F 32.8 °F 8.6 °F 30% 30.48 in - SE 5.8 mph - N/A   Clear
4:15 AM 37.4 °F 32.1 °F 10.4 °F 33% 30.48 in - SE 6.9 mph - N/A   Clear
4:35 AM 37.4 °F 32.1 °F 10.4 °F 33% 30.48 in - SE 6.9 mph - N/A   Clear
4:55 AM 37.4 °F 32.1 °F 10.4 °F 33% 30.48 in - SSE 6.9 mph - N/A   Clear
5:15 AM 37.4 °F 31.4 °F 8.6 °F 30% 30.48 in - SSE 8.1 mph - N/A   Clear
5:35 AM 37.4 °F 31.4 °F 10.4 °F 33% 30.48 in - SSE 8.1 mph - N/A   Clear
5:55 AM 37.4 °F 30.8 °F 10.4 °F 33% 30.48 in - SE 9.2 mph - N/A   Clear
6:15 AM 35.6 °F 30.7 °F 10.4 °F 35% 30.48 in - SE 5.8 mph - N/A   Clear
6:35 AM 37.4 °F 31.4 °F 10.4 °F 33% 30.48 in - SE 8.1 mph - N/A   Clear
6:55 AM 35.6 °F 29.2 °F 10.4 °F 35% 30.48 in - SE 8.1 mph - N/A   Clear
7:15 AM 35.6 °F 29.2 °F 10.4 °F 35% 30.48 in - SE 8.1 mph - N/A   Clear
7:35 AM 35.6 °F 29.9 °F 10.4 °F 35% 30.48 in - SE 6.9 mph - N/A   Clear
7:55 AM 39.2 °F 34.2 °F 10.4 °F 31% 30.48 in - SE 6.9 mph - N/A   Unknown
8:15 AM 41.0 °F - 8.6 °F 26% 30.49 in - Calm Calm - N/A   Clear
8:35 AM 42.8 °F 38.6 °F 8.6 °F 25% 30.50 in - SSE 6.9 mph - N/A   Unknown
8:55 AM 44.6 °F 43.1 °F 8.6 °F 23% 30.50 in - SE 3.5 mph - N/A   Clear
9:15 AM 46.4 °F - 10.4 °F 23% 30.50 in - Calm Calm - N/A   Unknown
9:35 AM 50.0 °F - 10.4 °F 20% 30.50 in - Calm Calm - N/A   Unknown
9:55 AM 51.8 °F - 8.6 °F 18% 30.50 in 10.0 mi Calm Calm - N/A   Clear
10:15 AM 53.6 °F - 6.8 °F 15% 30.49 in 10.0 mi Calm Calm - N/A   Clear
10:35 AM 55.4 °F - 6.8 °F 14% 30.49 in 10.0 mi Calm Calm - N/A   Clear
10:55 AM 57.2 °F - 3.2 °F 11% 30.48 in 10.0 mi Calm Calm - N/A   Clear
11:15 AM 57.2 °F - 1.4 °F 10% 30.48 in 10.0 mi Calm Calm - N/A   Clear
11:35 AM 59.0 °F - -2.2 °F 8% 30.47 in 10.0 mi Calm Calm - N/A   Clear
11:55 AM 59.0 °F - -4.0 °F 8% 30.46 in 10.0 mi West 4.6 mph - N/A   Clear
12:15 PM 60.8 °F - -2.2 °F 8% 30.45 in 10.0 mi West 6.9 mph - N/A   Clear
12:35 PM 60.8 °F - -0.4 °F 8% 30.44 in 10.0 mi SW 4.6 mph - N/A   Clear
12:55 PM 62.6 °F - 1.4 °F 9% 30.43 in 10.0 mi West 5.8 mph - N/A   Clear
1:15 PM 62.6 °F - 3.2 °F 9% 30.42 in 10.0 mi West 6.9 mph - N/A   Clear
1:35 PM 64.4 °F - 5.0 °F 10% 30.42 in 10.0 mi West 10.4 mph - N/A   Clear
1:55 PM 62.6 °F - 5.0 °F 10% 30.40 in 10.0 mi West 11.5 mph - N/A   Clear
2:15 PM 62.6 °F - 8.6 °F 12% 30.40 in 10.0 mi West 12.7 mph 18.4 mph N/A   Clear
2:35 PM 62.6 °F - 8.6 °F 12% 30.40 in 10.0 mi West 13.8 mph - N/A   Clear
2:55 PM 62.6 °F - 8.6 °F 12% 30.38 in 10.0 mi West 12.7 mph 18.4 mph N/A   Clear
3:15 PM 62.6 °F - 8.6 °F 12% 30.38 in 10.0 mi West 15.0 mph - N/A   Clear
3:35 PM 60.8 °F - 8.6 °F 13% 30.38 in 10.0 mi West 15.0 mph 21.9 mph N/A   Clear
3:55 PM 62.6 °F - 8.6 °F 12% 30.38 in 10.0 mi West 15.0 mph - N/A   Clear
4:15 PM 62.6 °F - 8.6 °F 12% 30.38 in 10.0 mi West 12.7 mph - N/A   Clear
4:35 PM 60.8 °F - 8.6 °F 13% 30.37 in 10.0 mi West 13.8 mph - N/A   Clear
4:55 PM 60.8 °F - 10.4 °F 14% 30.37 in 10.0 mi West 12.7 mph - N/A   Clear
5:15 PM 60.8 °F - 10.4 °F 14% 30.36 in 10.0 mi West 11.5 mph - N/A   Clear
5:35 PM 59.0 °F - 10.4 °F 15% 30.36 in 10.0 mi West 10.4 mph - N/A   Clear
5:55 PM 59.0 °F - 10.4 °F 15% 30.36 in 10.0 mi West 8.1 mph - N/A   Clear
6:15 PM 59.0 °F - 10.4 °F 15% 30.36 in 10.0 mi West 6.9 mph - N/A   Clear
6:35 PM 55.4 °F - 10.4 °F 17% 30.35 in 10.0 mi WSW 4.6 mph - N/A   Clear
6:55 PM 53.6 °F - 10.4 °F 18% 30.35 in 10.0 mi SSW 5.8 mph - N/A   Clear
7:15 PM 53.6 °F - 10.4 °F 18% 30.35 in 10.0 mi Calm Calm - N/A   Clear
7:35 PM 51.8 °F - 12.2 °F 21% 30.36 in 10.0 mi SSE 3.5 mph - N/A   Clear
7:55 PM 50.0 °F - 12.2 °F 22% 30.36 in 10.0 mi ESE 4.6 mph - N/A   Clear
8:15 PM 48.2 °F - 12.2 °F 24% 30.36 in 10.0 mi SE 6.9 mph - N/A   Clear
8:35 PM 48.2 °F - 12.2 °F 24% 30.36 in 10.0 mi SE 5.8 mph - N/A   Clear
8:55 PM 46.4 °F 44.3 °F 12.2 °F 25% 30.37 in 10.0 mi SE 4.6 mph - N/A   Clear
9:15 PM 46.4 °F - 12.2 °F 25% 30.37 in 10.0 mi Calm Calm - N/A   Clear
9:35 PM 46.4 °F 44.3 °F 12.2 °F 25% 30.36 in 10.0 mi East 4.6 mph - N/A   Clear
9:55 PM 46.4 °F 43.5 °F 12.2 °F 25% 30.36 in 10.0 mi ESE 5.8 mph - N/A   Clear
10:15 PM 44.6 °F 43.1 °F 12.2 °F 27% 30.36 in 10.0 mi East 3.5 mph - N/A   Clear
10:35 PM 44.6 °F - 12.2 °F 27% 30.36 in 10.0 mi Calm Calm - N/A   Clear
10:55 PM 46.4 °F 44.3 °F 14.0 °F 27% 30.36 in 10.0 mi SSE 4.6 mph - N/A   Clear
11:15 PM 44.6 °F - 14.0 °F 29% 30.36 in 10.0 mi Calm Calm - N/A   Clear
11:35 PM 44.6 °F - 14.0 °F 29% 30.36 in 10.0 mi Calm Calm - N/A   Clear
11:55 PM 46.4 °F 45.2 °F 14.0 °F 27% 30.36 in 10.0 mi SE 3.5 mph - N/A   Clear